< < Back
Terminal Aerodrome Forecast


Current Version              Previous Versions:   1  2  3  4  5  6  7  8  9  

Terminal Aerodrome Forecast

885
FTUS42 KILM 252320
TAFILM
TAF
KILM 252320Z 2600/2624 00000KT P6SM SKC
     FM261200 VRB04KT P6SM FEW250
     FM261800 15006KT P6SM SCT250=

Latest METAR

349
SAUS70 KWBC 262300 RRA
MTRILM
METAR KILM 262253Z AUTO 15004KT 10SM CLR 29/22 A3005 RMK AO2 SLP174
T02890217


USA.gov is the U.S. government's official web portal to all federal, state and local government web resources and services.